Weather History for PAHO - April, 2013

Change the Weather History Date:

Tuesday, April 23, 2013

  Actual Average Record
Temperature  
Mean Temperature 40 °F -  
Max Temperature 43 °F 46 °F 56 °F (1956)
Min Temperature 37 °F 30 °F 14 °F (1948)
Degree Days  
Heating Degree Days 26    
Moisture  
Dew Point 35 °F    
Average Humidity 82    
Maximum Humidity 93    
Minimum Humidity 55    
Precipitation  
Precipitation 0.35 in - - ()
Sea Level Pressure  
Sea Level Pressure 30.38 in    
Wind  
Wind Speed 2 mph (NW)    
Max Wind Speed 7 mph    
Max Gust Speed -    
Visibility 10 miles    
Events Rain    
Averages and records for this station are not official NWS values.
T = Trace of Precipitation, MM = Missing Value Source: NWS Daily Summary

Daily Weather History Graph

Daily Weather History Graph

Search for Another Location

Airport or City:

Trip Planner

Search our weather history database for the weather conditions in past years. The results will help you decide how hot, cold, wet, or windy it might be!

Date:

Astronomy

Apr. 23, 2013 Rise Set
Actual Time 6:26 AM AKDT 9:43 PM AKDT
Civil Twilight 5:37 AM AKDT 10:32 PM AKDT
Nautical Twilight 4:29 AM AKDT 11:42 PM AKDT
Astronomical Twilight 2:36 AM AKDT 1:31 AM AKDT
Moon 7:27 PM AKDT (4/23) 5:32 AM AKDT (4/23)
Length of Visible Light 16h 55m
Length of Day
15h 17m
Waxing Gibbous, 95% of the Moon is Illuminated
Apr 23
Waxing Gibbous
Apr 25
Full
May 2
Last Quarter
May 9
New
May 17
First Quarter

Hourly Weather History & Observations

Time (AKDT) Temp. Windchill Dew Point Humidity Pressure Visibility Wind Dir Wind Speed Gust Speed Precip Events Conditions
12:53 AM 42.1 °F - 27.0 °F 55% 30.43 in 10.0 mi Calm Calm - 0.00 in Rain Light Rain
1:19 AM 42.8 °F - 30.2 °F 61% 30.43 in 10.0 mi Calm Calm - 0.00 in Rain Light Rain
1:53 AM 41.0 °F 38.0 °F 32.0 °F 70% 30.44 in 10.0 mi North 4.6 mph - 0.01 in Rain Light Rain
2:35 AM 39.2 °F - 33.8 °F 81% 30.42 in 10.0 mi Calm Calm - 0.01 in Rain Light Rain
2:53 AM 39.9 °F 37.8 °F 34.0 °F 79% 30.42 in 10.0 mi Variable 3.5 mph - 0.01 in Rain Light Rain
3:53 AM 39.9 °F - 34.0 °F 79% 30.40 in 10.0 mi Calm Calm - 0.01 in Rain Light Rain
4:53 AM 39.9 °F 36.7 °F 33.1 °F 77% 30.38 in 10.0 mi NNE 4.6 mph - 0.01 in   Overcast
5:14 AM 39.2 °F 37.0 °F 33.8 °F 81% 30.38 in 10.0 mi North 3.5 mph - N/A   Overcast
5:21 AM 39.2 °F 35.0 °F 33.8 °F 81% 30.38 in 10.0 mi North 5.8 mph - 0.00 in Rain Light Rain
5:53 AM 39.0 °F 35.7 °F 33.1 °F 79% 30.38 in 10.0 mi NNE 4.6 mph - 0.00 in Rain Light Rain
6:53 AM 39.0 °F 34.8 °F 33.1 °F 79% 30.38 in 10.0 mi North 5.8 mph - 0.02 in Rain Light Rain
7:38 AM 39.2 °F 35.9 °F 33.8 °F 81% 30.37 in 7.0 mi NNE 4.6 mph - 0.02 in Rain Light Rain
7:53 AM 39.9 °F 35.8 °F 34.0 °F 79% 30.37 in 9.0 mi North 5.8 mph - 0.02 in Rain Light Rain
8:53 AM 39.9 °F 35.8 °F 34.0 °F 79% 30.37 in 10.0 mi North 5.8 mph - 0.03 in Rain Light Rain
9:53 AM 41.0 °F 39.0 °F 35.1 °F 79% 30.37 in 10.0 mi NNE 3.5 mph - 0.03 in Rain Light Rain
10:53 AM 41.0 °F - 36.0 °F 82% 30.37 in 10.0 mi Calm Calm - 0.04 in Rain Light Rain
11:53 AM 39.9 °F - 37.0 °F 89% 30.37 in 9.0 mi Calm Calm - 0.05 in Rain Light Rain
12:53 PM 39.9 °F 35.1 °F 37.0 °F 89% 30.38 in 10.0 mi SSW 6.9 mph - 0.00 in   Overcast
1:21 PM 41.0 °F 37.1 °F 37.4 °F 87% 30.38 in 10.0 mi SSW 5.8 mph - 0.00 in Rain Light Rain
1:53 PM 41.0 °F 38.0 °F 37.0 °F 86% 30.38 in 7.0 mi SSW 4.6 mph - 0.02 in Rain Light Rain
2:53 PM 41.0 °F - 37.0 °F 86% 30.37 in 7.0 mi Calm Calm - 0.03 in Rain Light Rain
3:48 PM 41.0 °F 38.0 °F 37.4 °F 87% 30.36 in 7.0 mi West 4.6 mph - 0.02 in Rain Light Rain
3:53 PM 41.0 °F 39.0 °F 37.0 °F 86% 30.36 in 7.0 mi West 3.5 mph - 0.02 in Rain Light Rain
4:53 PM 41.0 °F 37.1 °F 37.0 °F 86% 30.36 in 10.0 mi SW 5.8 mph - 0.02 in Rain Light Rain
5:53 PM 42.1 °F 39.2 °F 37.0 °F 82% 30.35 in 10.0 mi WSW 4.6 mph - 0.02 in   Overcast
6:53 PM 41.0 °F - 36.0 °F 82% 30.36 in 10.0 mi Calm Calm - 0.00 in   Overcast
7:42 PM 41.0 °F 38.0 °F 35.6 °F 81% 30.36 in 10.0 mi SW 4.6 mph - 0.01 in Rain Light Rain
7:53 PM 39.9 °F - 36.0 °F 86% 30.36 in 10.0 mi Calm Calm - 0.01 in Rain Light Rain
8:53 PM 39.9 °F - 36.0 °F 86% 30.35 in 10.0 mi Calm Calm - 0.00 in   Overcast
9:43 PM 39.2 °F - 35.6 °F 87% 30.37 in 10.0 mi Calm Calm - N/A   Overcast
9:53 PM 39.0 °F - 36.0 °F 89% 30.37 in 10.0 mi Calm Calm - N/A   Overcast
10:42 PM 39.2 °F - 35.6 °F 87% 30.36 in 10.0 mi Calm Calm - N/A   Overcast
10:53 PM 37.9 °F - 36.0 °F 93% 30.36 in 10.0 mi Calm Calm - N/A   Overcast
11:53 PM 39.0 °F - 36.0 °F 89% 30.36 in 10.0 mi Calm Calm - N/A   Overcast